Dyersburg, TN

1:11 AM CST on January 20, 2017 (GMT -0600)
Dyersburg Municipal

Weather History for KDYR - November, 2011

Change the Weather History Date:

Tuesday, November 22, 2011

  Actual Average Record
Temperature  
Mean Temperature 58 °F -  
Max Temperature 66 °F 55 °F 73 °F (2003)
Min Temperature 51 °F 38 °F 19 °F (2008)
Degree Days  
Heating Degree Days 6    
Growing Degree Days 8 (Base 50)    
Moisture  
Dew Point 52 °F    
Average Humidity 76    
Maximum Humidity 83    
Minimum Humidity 64    
Precipitation  
Precipitation 0.38 in - - ()
Sea Level Pressure  
Sea Level Pressure 29.92 in    
Wind  
Wind Speed 9 mph (WSW)    
Max Wind Speed 25 mph    
Max Gust Speed 34 mph    
Visibility 8 miles    
Events Thunderstorm    
Averages and records for this station are not official NWS values.
T = Trace of Precipitation, MM = Missing Value Source: NWS Daily Summary

Daily Weather History Graph

Daily Weather History Graph

Search for Another Location

Airport or City:

Trip Planner

Search our weather history database for the weather conditions in past years. The results will help you decide how hot, cold, wet, or windy it might be!

Date:

Astronomy

Nov. 22, 2011 Rise Set
Actual Time 6:40 AM CST 4:46 PM CST
Civil Twilight 6:13 AM CST 5:13 PM CST
Nautical Twilight 5:41 AM CST 5:45 PM CST
Astronomical Twilight 5:11 AM CST 6:15 PM CST
Moon 3:35 AM CST (11/22) 2:42 PM CST (11/22)
Length of Visible Light 11h 00m
Length of Day
10h 05m
Waning Crescent, 9% of the Moon is Illuminated
Nov 22
Waning Crescent
Nov 25
New
Dec 2
First Quarter
Dec 10
Full
Dec 17
Last Quarter

Hourly Weather History & Observations

Time (CST) Temp. Dew Point Humidity Pressure Visibility Wind Dir Wind Speed Gust Speed Precip Events Conditions
12:15 AM 60.8 °F 55.4 °F 82% 30.01 in 0.5 mi ESE 3.5 mph - N/A   Overcast
12:35 AM 60.8 °F 55.4 °F 82% 30.00 in 3.0 mi ESE 5.8 mph - 0.01 in Thunderstorm Overcast
12:55 AM 60.8 °F 55.4 °F 82% 29.99 in 4.0 mi East 4.6 mph - 0.01 in   Overcast
1:15 AM 60.8 °F 55.4 °F 82% 29.97 in 4.0 mi East 6.9 mph - 0.01 in   Overcast
1:35 AM 62.6 °F 57.2 °F 82% 29.96 in 6.0 mi ESE 10.4 mph - 0.02 in   Overcast
1:55 AM 62.6 °F 57.2 °F 82% 29.97 in 9.0 mi SE 5.8 mph - 0.03 in   Overcast
2:15 AM 62.6 °F 57.2 °F 82% 29.97 in 10.0 mi SE 6.9 mph - N/A   Overcast
2:35 AM 62.6 °F 57.2 °F 82% 29.96 in 9.0 mi SE 6.9 mph - 0.01 in   Overcast
2:55 AM 62.6 °F 57.2 °F 82% 29.95 in 10.0 mi SE 9.2 mph - 0.01 in   Overcast
3:15 AM 62.6 °F 57.2 °F 82% 29.94 in 10.0 mi SSE 6.9 mph - N/A   Overcast
3:35 AM 64.4 °F 59.0 °F 83% 29.93 in 10.0 mi SSE 9.2 mph - N/A   Overcast
3:55 AM 64.4 °F 59.0 °F 83% 29.91 in 10.0 mi SSE 8.1 mph 16.1 mph 0.01 in   Overcast
4:15 AM 64.4 °F 59.0 °F 83% 29.91 in 8.0 mi SSE 11.5 mph - 0.05 in   Overcast
4:35 AM 64.4 °F 59.0 °F 83% 29.89 in 8.0 mi SSE 11.5 mph - 0.10 in   Overcast
4:55 AM 64.4 °F 59.0 °F 83% 29.89 in 8.0 mi South 10.4 mph 19.6 mph 0.14 in   Overcast
5:15 AM 64.4 °F 59.0 °F 83% 29.87 in 7.0 mi SSE 11.5 mph 17.3 mph 0.09 in   Overcast
5:55 AM 64.4 °F 59.0 °F 83% 29.85 in 10.0 mi South 17.3 mph 26.5 mph 0.11 in   Overcast
6:15 AM 64.4 °F 59.0 °F 83% 29.80 in 10.0 mi South 17.3 mph 32.2 mph N/A   Mostly Cloudy
6:35 AM 64.4 °F 59.0 °F 83% 29.81 in 10.0 mi South 18.4 mph 28.8 mph N/A   Scattered Clouds
6:55 AM 64.4 °F 57.2 °F 77% 29.75 in 10.0 mi SSE 25.3 mph 33.4 mph N/A   Mostly Cloudy
7:15 AM 64.4 °F 55.4 °F 73% 29.80 in 10.0 mi South 15.0 mph 26.5 mph N/A   Mostly Cloudy
7:35 AM 64.4 °F 55.4 °F 73% 29.80 in 10.0 mi South 16.1 mph 28.8 mph N/A   Mostly Cloudy
7:55 AM 64.4 °F 55.4 °F 73% 29.78 in 10.0 mi South 17.3 mph 34.5 mph N/A   Overcast
8:15 AM 66.2 °F 53.6 °F 64% 29.78 in 10.0 mi South 17.3 mph 26.5 mph N/A   Overcast
8:35 AM 66.2 °F 53.6 °F 64% 29.79 in 10.0 mi South 19.6 mph 32.2 mph N/A   Overcast
8:55 AM 66.2 °F 53.6 °F 64% 29.80 in 10.0 mi SSW 12.7 mph 32.2 mph N/A   Overcast
9:15 AM 66.2 °F 53.6 °F 64% 29.84 in 10.0 mi WSW 15.0 mph 19.6 mph N/A   Mostly Cloudy
9:35 AM 64.4 °F 53.6 °F 68% 29.85 in 10.0 mi SW 11.5 mph 16.1 mph N/A   Partly Cloudy
9:55 AM 64.4 °F 53.6 °F 68% 29.86 in 10.0 mi WSW 12.7 mph - N/A   Clear
10:15 AM 64.4 °F 53.6 °F 68% 29.86 in 10.0 mi SW 9.2 mph - N/A   Clear
10:35 AM 64.4 °F 53.6 °F 68% 29.86 in 10.0 mi SW 11.5 mph - N/A   Clear
10:55 AM 64.4 °F 53.6 °F 68% 29.85 in 10.0 mi SW 6.9 mph - N/A   Clear
11:35 AM 64.4 °F 55.4 °F 73% 29.85 in 10.0 mi SW 6.9 mph - N/A   Mostly Cloudy
12:35 PM 62.6 °F 55.4 °F 77% 29.85 in 2.5 mi West 9.2 mph - 0.01 in   Overcast
1:35 PM 59.0 °F 53.6 °F 82% 29.85 in 1.5 mi West 6.9 mph - 0.02 in   Overcast
1:55 PM 59.0 °F 53.6 °F 82% 29.84 in 3.0 mi West 8.1 mph - 0.03 in   Overcast
2:15 PM 57.2 °F 51.8 °F 82% 29.84 in 2.0 mi West 6.9 mph - N/A   Overcast
2:35 PM 59.0 °F 51.8 °F 77% 29.85 in 2.0 mi West 6.9 mph - N/A   Overcast
2:55 PM 57.2 °F 51.8 °F 82% 29.86 in 2.0 mi West 8.1 mph - 0.01 in   Overcast
3:35 PM 57.2 °F 51.8 °F 82% 29.87 in 3.0 mi West 8.1 mph - 0.01 in   Overcast
3:55 PM 57.2 °F 51.8 °F 82% 29.87 in 1.5 mi West 6.9 mph - 0.01 in   Overcast
4:15 PM 57.2 °F 51.8 °F 82% 29.88 in 2.0 mi West 11.5 mph - N/A   Overcast
4:35 PM 55.4 °F 50.0 °F 82% 29.89 in 8.0 mi NW 8.1 mph - 0.01 in   Overcast
4:55 PM 55.4 °F 48.2 °F 77% 29.90 in 9.0 mi WNW 11.5 mph 17.3 mph 0.01 in   Overcast
5:35 PM 53.6 °F 46.4 °F 77% 29.94 in 5.0 mi WNW 10.4 mph 16.1 mph N/A   Overcast
5:55 PM 53.6 °F 46.4 °F 77% 29.95 in 10.0 mi WNW 9.2 mph - N/A   Overcast
6:15 PM 53.6 °F 46.4 °F 77% 29.96 in 10.0 mi WNW 6.9 mph - N/A   Overcast
6:35 PM 55.4 °F 46.4 °F 72% 29.97 in 10.0 mi WNW 8.1 mph - N/A   Overcast
6:55 PM 53.6 °F 46.4 °F 77% 29.99 in 10.0 mi WNW 8.1 mph - N/A   Overcast
7:15 PM 53.6 °F 44.6 °F 72% 30.00 in 10.0 mi NW 5.8 mph - N/A   Overcast
7:35 PM 53.6 °F 44.6 °F 72% 30.00 in 10.0 mi NW 9.2 mph - N/A   Overcast
7:55 PM 53.6 °F 44.6 °F 72% 30.01 in 10.0 mi NW 6.9 mph - N/A   Overcast
8:15 PM 53.6 °F 44.6 °F 72% 30.03 in 10.0 mi NW 8.1 mph - N/A   Overcast
8:35 PM 53.6 °F 44.6 °F 72% 30.03 in 10.0 mi NW 9.2 mph 17.3 mph N/A   Overcast
9:15 PM 53.6 °F 42.8 °F 67% 30.06 in 10.0 mi NW 15.0 mph 19.6 mph N/A   Overcast
9:35 PM 53.6 °F 42.8 °F 67% 30.06 in 10.0 mi NW 6.9 mph 17.3 mph N/A   Overcast
9:55 PM 53.6 °F 42.8 °F 67% 30.07 in 10.0 mi WNW 5.8 mph - N/A   Overcast
10:15 PM 53.6 °F 42.8 °F 67% 30.07 in 10.0 mi NW 5.8 mph - N/A   Overcast
10:35 PM 51.8 °F 42.8 °F 71% 30.07 in 10.0 mi NW 6.9 mph - N/A   Overcast
10:55 PM 51.8 °F 42.8 °F 71% 30.08 in 10.0 mi NW 6.9 mph - N/A   Overcast
11:15 PM 51.8 °F 42.8 °F 71% 30.10 in 10.0 mi WNW 10.4 mph - N/A   Overcast
11:35 PM 51.8 °F 42.8 °F 71% 30.11 in 10.0 mi NW 10.4 mph - N/A   Overcast
11:55 PM 51.8 °F 41.0 °F 67% 30.12 in 10.0 mi NW 8.1 mph 17.3 mph N/A   Overcast